This demonstration page uses our WeatherBlox Daily Observations layout. Learn more.

Left ArrowRight Arrow

39.51506, -84.39828

Hourly Observations for October 3, 2018

Temp ( °F °C ) Dew Point ( °F °C ) Humidity (%) Winds ( mph kmh ) Pressure ( in mb ) Visibility ( mi km ) Precip ( " mm )
12:15 am 00:15 Mostly Cloudy with Mist and Fog 68 20.2 68 19.9 98 98 Calm 30.09 1019 5 8.0467 0 0
12:35 am 00:35 Cloudy with Mist and Fog 69 20.5 68 20.2 98 98 Calm 30.09 1019 7 11.26538 0 0
12:55 am 00:55 Mostly Cloudy 69 20.8 69 20.4 98 98 Calm 30.09 1019 10 16.0934 0 0
1:15 am 01:15 Mostly Cloudy with Mist and Fog 67 19.7 67 19.3 98 98 Calm 30.09 1019 1 1.60934 0 0
1:35 am 01:35 Mostly Cloudy with Fog 66 19.1 66 18.9 99 99 Calm 30.06 1018 0.5 0.80467 0 0
1:55 am 01:55 Mostly Cloudy with Mist and Fog 66 19 66 18.8 99 99 N 3 6 30.09 1019 1 1.60934 0 0
2:15 am 02:15 Clear with Mist and Fog 67 19.4 67 19.2 99 99 Calm 30.09 1019 2.5 4.02335 0 0
2:35 am 02:35 Mostly Cloudy with Mist and Fog 66 19 66 18.8 99 99 Calm 30.09 1019 2 3.21868 0 0
2:55 am 02:55 Cloudy with Fog 66 18.8 66 18.7 99 99 Calm 30.09 1019 0.25 0.402335 0 0
3:15 am 03:15 Cloudy with Fog 67 19.2 66 19.1 99 99 Calm 30.09 1019 0.25 0.402335 0 0
3:35 am 03:35 Cloudy with Fog 67 19.2 66 19.1 99 99 Calm 30.09 1019 0.25 0.402335 0 0
3:55 am 03:55 Mostly Cloudy with Fog 66 18.8 66 18.7 99 99 Calm 30.06 1018 0.5 0.80467 0 0
4:15 am 04:15 Mostly Cloudy with Fog 65 18.5 65 18.4 99 99 Calm 30.06 1018 0.25 0.402335 0 0
4:35 am 04:35 Mostly Cloudy with Fog 64 17.7 64 17.6 99 99 Calm 30.06 1018 0.25 0.402335 0 0
4:55 am 04:55 Cloudy with Fog 65 18.3 65 18.3 100 100 Calm 30.06 1018 5 8.0467 0 0
5:15 am 05:15 Cloudy with Fog 64 18 64 17.9 99 99 Calm 30.06 1018 5 8.0467 0 0
5:35 am 05:35 Cloudy with Fog 64 17.7 64 17.6 99 99 Calm 30.06 1018 0.25 0.402335 0 0
5:55 am 05:55 Cloudy with Fog 64 17.9 64 17.9 100 100 Calm 30.06 1018 0.25 0.402335 0 0
6:15 am 06:15 Mostly Clear with Fog 64 17.9 64 17.8 99 99 Calm 30.06 1018 0.25 0.402335 0 0
6:35 am 06:35 Mostly Cloudy with Fog 64 18 64 18 100 100 S 3 6 30.06 1018 0.5 0.80467 0 0
6:55 am 06:55 Mostly Cloudy with Fog 64 17.8 64 17.7 99 99 SW 5 7 30.06 1018 0.5 0.80467 0 0
7:15 am 07:15 Mostly Cloudy with Mist and Fog 65 18.5 65 18.4 99 99 SW 5 7 30.06 1018 1 1.60934 0 0
7:35 am 07:35 Cloudy with Mist and Fog 66 19 66 18.9 99 99 SW 5 7 30.06 1018 1.5 2.41401 0 0
7:55 am 07:55 Cloudy with Mist and Fog 67 19.2 67 19.2 100 100 SW 3 6 30.06 1018 1.75 2.816345 0 0
8:15 am 08:15 Cloudy with Mist and Fog 68 19.8 68 19.8 100 100 SW 3 6 30.06 1018 2.5 4.02335 0 0
8:35 am 08:35 Cloudy with Mist and Fog 69 20.3 68 20.2 99 99 SW 3 6 30.06 1018 2.5 4.02335 0 0
8:55 am 08:55 Cloudy with Mist and Fog 69 20.6 69 20.5 99 99 Calm 30.06 1018 3 4.82802 0 0
9:15 am 09:15 Cloudy with Mist and Fog 70 21 69 20.8 99 99 SW 6 9 30.06 1018 3 4.82802 0 0
9:35 am 09:35 Cloudy with Mist and Fog 70 21 69 20.8 99 99 SSW 7 11 30.06 1018 3.5 5.63269 0 0
9:55 am 09:55 Cloudy with Mist and Fog 71 21.5 70 21.1 98 98 SSW 7 11 30.09 1019 4 6.43736 0 0
10:15 am 10:15 Cloudy with Mist and Fog 71 21.8 70 21.1 96 96 SW 5 7 30.09 1019 4 6.43736 0 0
10:35 am 10:35 Partly Cloudy with Mist and Fog 72 22.3 70 21.3 94 94 SSW 5 7 30.09 1019 5 8.0467 0 0
10:55 am 10:55 Sunny 74 23.6 71 21.9 90 90 SW 7 11 30.06 1018 10 16.0934 0 0
11:15 am 11:15 Sunny 76 24.6 71 21.8 84 84 SSW 6 9 30.06 1018 10 16.0934 0 0
11:35 am 11:35 Sunny 79 26.1 71 21.8 77 77 SSW 12 19 30.06 1018 10 16.0934 0 0
11:55 am 11:55 Partly Cloudy 80 26.6 71 21.7 75 75 S 12 19 30.06 1018 10 16.0934 0 0
12:15 pm 12:15 Mostly Cloudy 80 26.7 70 21.3 72 72 SSW 10 17 30.06 1018 10 16.0934 0 0
12:35 pm 12:35 Partly Cloudy 82 27.9 71 21.6 69 69 SSW 12 19 30.03 1017 10 16.0934 0 0
12:55 pm 12:55 Sunny 83 28.4 70 21.1 65 65 SSW 14 22 30.03 1017 10 16.0934 0 0
1:15 pm 13:15 Partly Cloudy 84 28.8 71 21.4 64 64 SW 13 20 30 1016 10 16.0934 0 0
1:35 pm 13:35 Mostly Cloudy 84 28.8 70 21.1 63 63 SSW 15 24 30 1016 10 16.0934 0 0
1:55 pm 13:55 Partly Cloudy 84 29.1 69 20.4 59 59 SSW 15 24 29.97 1015 10 16.0934 0 0
2:15 pm 14:15 Partly Cloudy 85 29.3 70 21.1 61 61 SSW 9 15 29.97 1015 10 16.0934 0 0
2:35 pm 14:35 Partly Cloudy 85 29.3 69 20.4 59 59 SW 12 19 29.97 1015 10 16.0934 0 0
2:55 pm 14:55 Mostly Cloudy 83 28.5 69 20.3 61 61 SW 13 20 29.97 1015 10 16.0934 0 0
3:15 pm 15:15 Sunny 85 29.2 69 20.6 60 60 SSW 8 13 29.94 1014 10 16.0934 0 0
3:35 pm 15:35 Sunny 86 29.8 68 20.1 56 56 SW 13 20 29.94 1014 10 16.0934 0 0
3:55 pm 15:55 Partly Cloudy 85 29.3 69 20.5 59 59 SSW 13 20 29.94 1014 10 16.0934 0 0
4:15 pm 16:15 Partly Cloudy 84 29 69 20.5 60 60 S 9 15 29.94 1014 10 16.0934 0 0
4:35 pm 16:35 Partly Cloudy 85 29.5 69 20.3 58 58 S 10 17 29.91 1013 10 16.0934 0 0
4:55 pm 16:55 Partly Cloudy 85 29.6 68 20.1 57 57 S 13 20 29.91 1013 10 16.0934 0 0
5:15 pm 17:15 Partly Cloudy 85 29.4 68 20 57 57 SSW 12 19 29.91 1013 10 16.0934 0 0
5:35 pm 17:35 Partly Cloudy 84 29.1 68 20.1 58 58 SSW 12 19 29.91 1013 10 16.0934 0 0
5:55 pm 17:55 Partly Cloudy 83 28.2 67 19.5 59 59 S 10 17 29.91 1013 10 16.0934 0 0
6:15 pm 18:15 Mostly Cloudy 84 28.8 68 20 59 59 SSW 12 19 29.91 1013 10 16.0934 0 0
6:35 pm 18:35 Partly Cloudy 83 28.2 68 19.8 60 60 S 12 19 29.91 1013 10 16.0934 0 0
6:55 pm 18:55 Partly Cloudy 82 27.7 67 19.5 61 61 S 13 20 29.91 1013 10 16.0934 0 0
7:15 pm 19:15 Partly Cloudy 81 27 67 19.6 64 64 S 10 17 29.94 1014 10 16.0934 0 0
7:35 pm 19:35 Clear 80 26.5 67 19.6 66 66 S 10 17 29.94 1014 10 16.0934 0 0
7:55 pm 19:55 Clear 79 26.2 67 19.6 67 67 S 10 17 29.94 1014 10 16.0934 0 0
8:15 pm 20:15 Clear 78 25.8 68 19.8 70 70 S 8 13 29.94 1014 10 16.0934 0 0
8:35 pm 20:35 Clear 78 25.6 68 19.8 70 70 S 7 11 29.94 1014 10 16.0934 0 0
8:55 pm 20:55 Clear 78 25.5 68 20 72 72 S 8 13 29.94 1014 10 16.0934 0 0
9:15 pm 21:15 Clear 78 25.3 68 20.1 73 73 SSW 9 15 29.94 1014 10 16.0934 0 0
9:35 pm 21:35 Clear 77 25.1 68 20 73 73 S 9 15 29.94 1014 10 16.0934 0 0
9:55 pm 21:55 Clear 77 24.9 68 20.1 75 75 SSW 10 17 29.94 1014 10 16.0934 0 0
10:15 pm 22:15 Clear 76 24.6 68 20.1 76 76 SSW 8 13 29.97 1015 10 16.0934 0 0
10:35 pm 22:35 Clear 76 24.4 68 20.1 77 77 S 8 13 29.97 1015 10 16.0934 0 0
10:55 pm 22:55 Clear 74 23.2 68 20 82 82 SSW 7 11 29.94 1014 10 16.0934 0 0
11:15 pm 23:15 Clear 75 24 68 20.1 79 79 SSW 8 13 29.94 1014 10 16.0934 0 0
11:35 pm 23:35 Clear 75 23.9 68 20.1 79 79 SSW 8 13 29.94 1014 10 16.0934 0 0
11:55 pm 23:55 Clear 75 23.8 68 20.1 80 80 SSW 9 15 29.94 1014 10 16.0934 0 0

Powered by AerisWeather